Location: Haieshausen
(51.8387°N, 9.9720°E)
Time: 04:37:13
(UTC+00:00)

Gbstr 26 Del rocket - Pass Details

Date: 14 July 2020
Orbit: 492 x 1264 km, 51.8° (Epoch: 10 August)

Event Time Altitude Azimuth Distance (km) Brightness Sun altitude
Rises 01:37:55 0° 285° (WNW) 2,659 6.1 -11.1°
Reaches altitude 10° 01:40:02 10° 279° (W) 1,826 5.3 -10.9°
Maximum altitude 01:43:58 48° 205° (SSW) 804 3.2 -10.6°
Drops below altitude 10° 01:48:39 10° 132° (SE) 2,163 5.8 -10.2°
Sets 01:51:21 0° 127° (SE) 3,214 6.7 -10.0°
